Content
SEND FEEDBACK

Daily
Averages
Monthly
Summary
United States of America

PHENIX CITY, ALABAMA


Home > North America > United States > Alabama
Elevation: 399 feet     Latitude: 32 31N     Longitude: 084 57W

WEATHER
 
SELECT A DAY
Number of Records: 203,595;   Date Range: 1/1/95 - 9/16/14
 
SHARE

PRINT THIS DATA

[ ← Previous Day ]
WEATHER ALMANAC - JANUARY 31, 2013
[ Next Day → ]
[ °C ]   °F
Weather ElementAverageHighLow
Temperature45.7 °F55 °F (3:51 pm)37.9 °F (6:51 am)
Dewpoint25.4 °F30.9 °F (4:51 am)19 °F (2:51 pm)
Humidity47.8 %70 % (6:51 am)24 % (4:51 pm)
Barometer30.14 in30.24 in (10:51 pm)29.98 in (1:51 am)
Wind Speed10.3 mph18.4 mph (3:51 am)
Wind Gust27.6 mph (12:51 pm)
Weather ElementAverage
Visibility10 mi
Wind DirectionWNW (289.1 °)

Weather ElementTotal
Precipitation---
Heating Degree Days18.6 (Base 65)
Averaged from 23 records on January 31, 2013
WEATHER CONDITIONS BREAKOUT
WIND DIRECTION BREAKOUT
WEATHER BY HOUR - JANUARY 31, 2013
[ °C ]   °F
Local TimeTemperatureDewpointHumidityBarometerVisibilityWind DirectionWind SpeedGust SpeedPrecipitationEventsConditions
1:51 AM44.1 °F28.9 °F55 %29.98 in10.0 miWNW (300°)12.7 mph26.5 mphScattered Clouds
2:51 AM44.1 °F30.0 °F58 %30.00 in10.0 miWNW (300°)16.1 mph25.3 mphMostly Cloudy
3:51 AM42.1 °F30.0 °F62 %30.01 in10.0 miNW (310°)18.4 mph23.0 mphClear
4:51 AM41.0 °F30.9 °F67 %30.05 in10.0 miNW (310°)10.4 mphClear
5:51 AM39.9 °F30.0 °F68 %30.08 in10.0 miWNW (300°)10.4 mphClear
6:51 AM37.9 °F28.9 °F70 %30.09 in10.0 miWNW (300°)6.9 mphClear
7:51 AM37.9 °F28.9 °F70 %30.11 in10.0 miWNW (300°)5.8 mphClear
8:51 AM39.0 °F28.0 °F65 %30.13 in10.0 miNW (310°)15.0 mphClear
9:51 AM42.1 °F27.0 °F55 %30.15 in10.0 miWNW (300°)11.5 mph20.7 mphPartly Cloudy
10:51 AM45.0 °F26.1 °F48 %30.18 in10.0 miNW (320°)16.1 mphClear
11:51 AM48.0 °F21.9 °F36 %30.19 in10.0 miNW (320°)13.8 mph20.7 mphClear
12:51 PM50.0 °F19.9 °F31 %30.18 in10.0 miNW (310°)13.8 mph27.6 mphClear
1:51 PM52.0 °F21.0 °F30 %30.16 in10.0 miNW (310°)15.0 mph19.6 mphClear
2:51 PM54.0 °F19.0 °F25 %30.16 in10.0 miNorth (350°)12.7 mph20.7 mphClear
3:51 PM55.0 °F19.9 °F25 %30.15 in10.0 miNNW (330°)10.4 mph18.4 mphClear
4:51 PM55.0 °F19.0 °F24 %30.15 in10.0 miNNW (340°)10.4 mphClear
5:51 PM53.1 °F19.9 °F27 %30.17 in10.0 miNNW (330°)10.4 mphClear
6:51 PM48.9 °F23.0 °F36 %30.18 in10.0 miCalmClear
7:51 PM46.9 °F25.0 °F42 %30.20 in10.0 miWest (280°)5.8 mphClear
8:51 PM46.0 °F25.0 °F44 %30.22 in10.0 miWest (270°)3.5 mphClear
9:51 PM43.0 °F27.0 °F53 %30.22 in10.0 miWSW (240°)5.8 mphClear
10:51 PM43.0 °F27.0 °F53 %30.24 in10.0 miWest (260°)5.8 mphClear
11:51 PM42.1 °F27.0 °F55 %30.24 in10.0 miWest (260°)5.8 mphClear
Hourly data recorded from KCSG, located miles away from Phenix City, Alabama







STORIES FROM OUR PARTNERS